Tracking 27420 objects as of 28-May-2023
HD Live streaming from Space Station
objects crossing your sky now

FREGAT DEB

Track FREGAT DEB now!
10-day predictions


NORAD ID: 55980
Int'l Code: 2011-037PU
Perigee: 1,086.3 km
Apogee: 2,602.6 km
Inclination: 50.4 °
Period: 123.5 minutes
Semi major axis: 8215 km
RCS: Unknown
Launch date: July 18, 2011
Source: Commonwealth of Independent States (former USSR) (CIS)
Launch site: TYURATAM MISSILE AND SPACE COMPLEX (TTMTR)

Note: This is SATELLITE DEBRIS
Your satellite tracking list
Your tracking list is empty




NASA's NSSDC Master Catalog

Two Line Element Set (TLE):
1 55980U 11037PU  23145.12597938 -.00014244  00000-0 -89274-1 0  9996
2 55980  50.4490 116.9758 0922857 144.3413 222.2770 11.65883782 33446
Source of the keplerian elements: AFSPC